Theta_e
300 302 311 317 317 320 322 323 322 320 320 314 309 307 307 308 309 311 314 317 318 318 318 317 317 318 318 319 319 319 325 323 323 323 324 322 322 324 325 322 321 322 322 321 322 322 322
299 299 300 300 306 307 311 318 320 321 320 320 319 313 310 308 308 308 309 312 315 317 318 318 317 317 317 317 319 319 323 324 323 323 322 322 323 324 322 321 321 321 321 322 322 323 321
299 298 298 299 299 299 300 302 307 312 319 320 319 320 319 313 309 307 308 308 310 314 317 317 317 317 317 318 319 318 320 322 324 322 322 323 324 323 322 322 321 321 323 322 321 321 323
298 298 298 298 298 298 299 299 300 301 303 306 318 320 320 323 317 311 308 307 308 309 313 316 317 317 317 318 318 319 319 319 320 323 322 324 324 323 322 322 324 324 322 326 323 323 323
301 301 299 298 297 297 298 299 299 300 300 300 301 307 317 320 322 320 314 309 307 307 309 313 316 317 316 317 318 318 319 319 318 321 323 323 324 322 323 325 326 324 327 326 327 323 324
304 301 299 298 298 297 296 297 298 298 299 299 299 300 302 311 318 321 322 317 311 307 307 311 316 316 317 317 317 318 321 322 317 322 322 322 323 323 323 325 323 326 326 325 326 325 324
302 304 303 302 300 299 298 297 297 297 297 298 299 299 299 300 307 316 321 323 313 310 311 310 316 316 316 317 317 320 320 323 319 321 324 321 324 325 324 324 323 324 325 325 324 323 323
299 301 303 303 302 300 299 298 298 297 297 298 298 298 299 299 299 308 318 320 313 315 313 312 314 315 315 316 316 318 320 322 321 321 321 323 325 324 321 321 323 324 325 324 323 323 324
298 298 298 298 299 299 298 298 298 298 298 298 298 298 298 298 299 303 318 319 316 315 315 314 312 311 314 316 316 317 318 321 322 322 323 325 324 320 322 322 323 324 324 324 323 323 323
296 297 298 298 297 297 297 297 297 298 298 298 298 299 298 298 299 309 317 317 320 314 316 314 316 315 315 316 318 317 317 321 321 324 321 323 323 322 321 322 322 324 321 322 322 322 328
298 298 297 299 299 298 297 297 297 297 297 297 298 299 298 299 300 312 314 315 317 313 320 315 314 316 316 316 313 318 317 318 322 322 323 325 322 323 324 324 321 323 321 321 322 324 324
296 296 298 299 298 298 298 297 297 297 297 297 298 299 299 300 300 300 307 310 310 313 315 314 314 318 318 317 315 317 318 318 318 320 320 322 320 321 323 321 321 321 322 322 321 324 328
297 297 297 296 297 297 298 299 297 296 295 296 297 298 299 301 302 301 300 311 312 314 314 316 316 315 318 318 318 317 318 319 319 321 322 323 321 319 319 322 320 320 321 325 328 329 331
298 299 296 295 297 297 296 295 297 297 295 294 295 297 299 299 299 299 300 310 313 313 314 314 314 315 318 317 317 317 318 320 319 320 321 322 323 321 320 322 322 321 322 326 328 327 326
296 297 299 299 298 296 297 298 297 296 295 295 296 297 297 297 299 299 300 305 310 312 313 314 315 315 317 316 316 316 317 319 319 319 320 321 321 318 319 320 321 320 321 321 324 322 326
296 296 296 297 298 299 299 299 297 297 296 296 297 298 297 296 299 300 302 301 305 308 310 312 315 315 317 317 315 317 317 317 318 318 319 320 320 318 317 318 320 322 321 322 324 324 325
296 295 296 296 297 297 297 298 299 299 297 296 298 297 297 297 299 300 300 301 301 302 305 309 315 315 315 316 316 317 317 317 317 318 318 318 319 319 318 319 320 320 322 323 324 325 326
296 296 296 296 296 296 295 295 296 298 299 297 297 297 298 299 300 300 300 300 299 299 302 303 308 311 315 316 316 317 318 318 316 317 317 318 321 320 322 319 318 320 321 323 324 325 324
295 295 295 295 295 295 295 296 295 296 298 298 297 297 297 299 300 300 300 300 299 298 300 302 305 310 312 315 316 316 319 317 316 317 318 318 320 320 320 319 318 321 320 321 322 322 325
296 295 295 295 295 295 295 295 295 296 297 299 297 299 297 299 299 300 300 300 300 299 300 299 303 308 307 311 313 316 317 318 318 317 317 317 320 320 321 320 320 320 320 320 321 323 324
295 295 294 294 294 294 292 293 295 295 296 298 297 298 297 297 298 299 300 301 302 300 300 300 301 302 303 310 313 314 315 315 316 318 318 319 321 320 319 318 318 319 319 320 322 323 324
294 294 295 296 296 295 295 294 295 294 295 298 298 297 296 297 296 298 299 299 299 300 302 302 302 302 305 304 308 312 315 315 317 319 319 319 321 320 320 319 319 319 319 318 320 320 321
292 290 290 291 293 293 293 293 293 295 294 296 297 297 297 297 297 298 298 297 297 298 298 299 300 301 304 305 310 311 310 312 317 320 320 321 321 320 322 320 320 321 321 317 318 317 321
289 291 293 293 293 294 293 293 293 294 294 294 296 297 297 298 297 297 298 298 299 299 300 299 299 300 299 299 304 306 308 313 315 315 318 321 321 320 323 320 325 324 319 320 320 318 317
293 293 294 294 295 295 294 294 294 293 294 295 295 296 297 298 297 297 297 297 297 297 299 300 300 301 302 303 305 308 311 316 316 316 316 317 321 322 322 324 321 321 317 319 321 322 318
295 295 296 297 296 296 296 296 296 295 294 294 295 295 296 298 298 297 297 297 298 298 299 299 300 301 301 303 305 307 318 317 318 317 315 316 316 320 317 324 327 322 319 316 316 321 316
297 298 298 298 297 297 297 297 297 296 296 295 295 295 297 296 297 297 297 298 297 297 299 299 300 301 302 303 304 305 314 315 318 319 319 319 317 321 321 323 323 316 316 316 322 323 316
297 297 298 298 299 299 298 298 298 297 297 297 296 295 295 296 296 297 297 297 297 297 298 297 299 301 301 302 306 307 312 316 316 317 319 320 321 319 317 322 323 313 316 320 319 317 317
296 296 296 297 299 299 298 299 298 298 298 298 298 295 294 296 296 297 297 297 296 297 298 298 299 301 304 307 308 310 313 313 317 318 315 318 319 319 319 321 315 314 315 315 317 318 317
Wind_Speed
11 15 20 17 15 16 16 17 16 17 18 18 18 19 19 18 18 18 17 17 17 14 15 17 17 16 14 8 4 4 2 3 6 8 8 7 6 4 2 3 2 4 4 4 8 15 18
6 7 8 12 18 17 17 18 17 17 16 17 18 19 18 18 19 18 18 18 17 17 16 16 17 16 13 5 4 4 4 5 5 6 8 8 4 4 3 3 4 3 6 12 15 19 10
6 7 7 7 6 10 12 17 17 18 18 17 18 19 19 19 20 19 19 18 17 17 17 17 16 18 17 19 10 8 7 6 8 5 6 7 6 6 2 2 3 4 6 6 4 4 4
6 7 7 7 7 8 8 7 10 14 17 18 18 18 21 22 20 21 20 20 17 16 16 17 16 18 15 13 16 15 16 19 13 10 8 7 6 6 3 3 3 2 1 3 1 6 3
5 6 6 6 6 7 7 8 9 9 9 12 16 19 19 20 21 21 22 19 17 18 16 15 15 11 14 13 16 14 20 19 12 16 10 9 6 4 1 1 3 3 3 3 6 4 1
4 5 7 6 5 6 6 8 9 9 10 11 12 12 15 20 19 20 23 18 16 17 16 14 15 11 17 11 6 6 10 12 15 14 11 7 4 2 2 4 4 1 2 3 8 1 6
8 6 6 7 6 6 6 7 7 8 9 10 11 13 13 14 17 18 21 16 7 6 10 11 5 10 7 5 8 6 10 8 13 7 6 3 4 13 12 8 3 2 3 9 9 11 4
7 9 9 8 8 7 7 7 7 8 9 9 10 12 14 14 13 14 14 5 1 5 9 14 24 27 30 28 11 8 8 10 10 11 8 3 12 9 5 7 7 7 10 11 10 7 3
9 9 9 8 8 7 7 7 7 8 7 9 10 12 12 11 11 8 7 4 4 8 6 11 23 25 31 23 21 29 10 7 5 8 12 14 6 1 11 6 6 8 8 8 9 6 5
12 11 10 10 10 9 8 8 8 8 8 8 9 11 11 10 7 3 2 2 14 2 3 7 6 14 22 20 13 29 27 9 5 14 7 8 11 5 5 6 9 10 11 14 9 4 3
9 11 12 12 12 11 10 10 9 8 9 10 9 11 10 8 3 0 1 9 10 16 5 7 5 7 16 24 15 15 36 23 8 7 7 8 8 9 13 21 10 8 5 6 4 4 1
12 12 12 13 14 14 13 12 11 10 9 10 10 10 10 8 5 4 5 7 18 4 7 7 5 3 2 19 12 10 15 24 17 5 3 7 5 7 9 5 13 4 3 3 2 2 4
10 11 11 14 15 16 14 13 13 13 11 11 10 10 9 8 4 4 5 10 3 4 4 8 11 6 9 4 8 12 13 15 16 11 14 15 13 4 5 4 5 4 4 1 2 3 7
11 11 12 14 14 13 11 14 14 12 11 11 11 11 10 9 9 6 2 3 3 10 13 1 4 6 11 9 8 9 9 15 21 15 12 15 13 18 14 22 10 12 9 6 6 5 2
15 14 14 14 13 14 12 11 11 12 11 10 11 12 12 9 7 2 2 3 8 6 2 6 11 5 11 10 8 9 16 21 17 24 19 11 14 3 8 10 17 7 9 19 4 2 3
14 15 17 17 17 15 13 13 13 12 11 10 12 10 12 8 6 7 2 7 8 10 4 9 10 9 18 18 12 12 12 13 20 20 19 11 7 10 4 5 11 10 10 5 5 7 10
14 16 15 14 13 15 18 18 15 13 11 11 8 3 2 8 13 10 5 8 8 14 5 5 5 12 12 4 18 13 13 13 20 21 21 5 10 2 7 10 15 8 9 3 4 4 5
15 16 16 16 15 14 13 12 16 16 13 14 7 2 7 19 10 7 7 6 10 13 12 14 7 13 16 18 11 14 17 18 24 27 15 22 8 13 13 3 5 11 13 14 6 7 4
19 18 19 18 17 16 15 14 14 16 16 21 9 9 13 23 7 10 5 10 13 13 8 6 10 12 16 14 10 16 8 11 10 14 12 11 8 9 5 5 2 7 7 14 7 3 10
23 23 22 22 22 22 19 18 17 17 19 25 11 4 12 22 18 12 13 13 14 17 17 19 15 13 8 17 18 12 9 2 1 9 29 10 5 15 20 22 7 7 8 12 15 3 17
25 26 26 26 26 25 24 23 21 19 19 26 16 7 12 6 15 18 11 6 13 11 16 15 10 23 23 9 17 21 23 24 8 3 1 7 10 13 21 14 5 6 13 14 16 24 11
29 30 30 30 29 29 28 26 25 23 20 27 15 9 13 13 17 20 20 21 23 21 9 10 20 21 18 27 19 22 15 7 13 2 3 0 2 5 14 11 12 10 5 16 21 12 13
33 33 34 33 33 32 31 32 33 28 25 23 29 23 15 15 12 14 18 24 27 27 24 29 22 19 19 25 27 31 31 36 6 6 2 2 3 5 23 5 7 3 19 9 9 6 12
30 29 29 31 31 32 34 34 35 35 35 39 28 19 8 8 15 22 22 25 23 23 21 21 26 22 36 43 35 40 37 34 22 15 4 7 5 7 12 2 9 7 3 12 16 7 12
30 32 32 35 35 34 35 35 34 35 39 41 40 31 16 7 19 18 26 25 30 30 22 23 25 27 24 23 6 8 13 14 18 17 16 5 9 3 4 5 7 15 4 6 8 12 14
35 34 36 38 38 39 38 38 37 35 39 40 43 43 31 5 20 36 24 25 18 16 14 20 23 26 26 12 5 9 10 8 9 8 15 9 6 12 3 5 11 12 12 13 5 8 9
35 35 38 40 42 43 43 43 42 40 40 42 42 44 36 18 28 26 21 23 29 19 11 10 15 14 25 14 10 11 15 7 10 13 9 8 3 19 14 7 8 5 4 16 10 8 9
29 30 32 35 38 40 42 43 42 43 43 43 50 47 43 19 31 29 46 35 18 26 13 18 9 11 8 10 10 7 8 6 9 17 11 10 10 5 4 11 19 9 6 11 5 6 13
26 28 30 30 26 26 31 36 39 41 41 46 48 49 48 31 20 25 39 51 45 35 32 16 12 13 9 7 7 5 7 5 12 9 7 10 6 8 11 6 1 4 1 5 14 19 14
Wind_Direction
246 247 247 249 251 255 257 260 268 275 273 273 268 270 270 275 277 280 283 288 293 298 304 307 311 316 326 310 273 283 248 189 213 234 239 219 199 195 215 195 216 225 265 247 252 279 283
232 239 246 246 250 253 257 259 261 263 267 275 279 271 274 274 275 277 280 283 288 294 300 305 309 310 318 296 263 269 248 210 216 229 250 232 240 234 227 221 206 236 274 284 284 275 257
234 240 240 251 250 251 254 258 260 263 262 266 275 279 273 272 276 276 279 280 283 290 294 300 308 309 297 269 265 255 248 237 236 238 241 234 261 249 218 249 277 280 295 309 309 312 249
232 235 244 245 258 263 268 269 271 269 270 269 265 272 279 273 273 276 277 280 284 283 287 293 300 306 279 276 260 255 249 243 242 238 219 214 288 257 257 306 343 336 12 329 303 335 19
241 244 254 250 258 266 272 279 272 281 287 286 278 271 273 278 274 272 275 279 285 285 286 285 294 295 275 262 253 257 244 243 241 230 220 231 279 225 290 21 309 22 292 308 315 349 325
251 260 268 269 263 271 273 275 288 292 289 287 292 293 277 271 275 274 272 280 283 286 281 280 268 288 254 256 250 255 235 230 217 214 230 214 188 206 102 180 250 204 295 271 285 249 324
225 241 266 276 267 274 279 284 289 293 296 295 290 290 295 287 275 278 281 283 293 284 238 213 230 214 264 299 271 260 244 212 190 189 186 171 193 228 212 213 244 290 260 272 278 276 280
236 235 245 258 274 273 286 288 287 288 293 296 302 298 294 297 298 274 283 286 137 327 299 255 245 253 253 268 286 291 227 186 171 196 141 169 230 234 201 207 238 267 285 281 282 280 263
241 244 250 260 268 277 282 282 289 290 298 306 304 304 303 306 306 275 264 244 246 311 277 276 250 249 248 248 249 254 242 214 172 163 191 208 191 202 199 194 204 240 254 263 258 315 267
251 252 254 258 266 270 278 283 286 290 297 298 305 312 315 319 302 322 110 253 226 155 313 282 231 246 219 222 250 245 238 233 202 201 163 228 232 198 173 210 184 264 215 248 267 275 252
264 257 255 257 260 265 267 274 282 289 295 296 300 308 317 333 325 4 5 44 150 151 244 277 258 276 218 186 207 227 230 219 217 179 165 215 177 189 216 233 177 243 187 222 242 219 252
265 260 252 258 260 261 265 271 272 276 281 288 295 299 306 318 318 278 263 12 124 88 240 283 284 224 196 222 227 192 178 202 218 186 250 229 200 180 203 176 189 177 147 66 69 157 229
268 269 270 264 261 261 260 266 271 272 274 277 284 288 295 299 301 299 329 137 95 200 123 232 223 181 206 212 252 219 177 173 191 191 221 215 225 202 167 144 175 183 106 284 243 217 236
263 273 273 262 265 269 265 262 269 276 278 273 272 272 269 267 288 311 38 97 236 198 201 192 259 213 199 178 215 228 215 206 208 198 217 214 236 198 193 211 194 201 171 180 222 209 241
264 264 261 264 263 262 265 268 272 274 280 281 271 273 273 264 274 293 179 168 216 209 237 253 257 265 228 221 198 185 220 222 207 202 209 201 230 166 191 190 185 172 188 230 227 87 253
265 267 268 261 261 264 266 268 269 273 273 268 267 278 279 255 212 155 124 240 238 198 340 357 248 248 241 218 199 185 199 222 226 216 212 211 243 209 156 125 214 195 151 121 205 215 235
278 267 269 267 267 266 265 264 261 257 253 247 245 279 176 184 169 178 206 228 264 240 186 211 303 280 276 305 219 208 202 207 210 216 214 187 219 181 132 201 179 182 215 178 165 187 213
272 272 271 273 272 268 265 264 257 250 240 230 211 200 201 171 179 210 220 205 250 266 235 230 264 271 272 278 303 236 216 217 196 204 197 211 209 229 208 135 225 201 211 185 194 204 236
272 272 272 274 273 270 268 267 265 242 227 218 213 195 190 193 210 221 240 241 243 255 229 230 243 218 273 303 270 263 253 233 215 193 188 181 210 227 230 235 112 212 195 200 197 61 209
272 271 270 270 270 269 268 261 256 248 229 225 196 196 190 212 229 225 224 249 251 251 246 247 256 246 280 284 280 283 271 293 178 216 215 179 196 214 226 227 185 206 202 204 195 165 236
271 271 273 271 267 264 260 256 249 244 231 219 200 205 194 198 219 218 225 243 246 241 233 224 234 235 240 260 281 272 272 254 278 178 248 177 202 214 236 240 191 205 217 199 202 222 220
272 270 267 266 265 264 263 257 249 242 235 230 212 194 207 227 194 207 217 231 241 249 251 242 237 248 242 235 234 277 316 246 260 301 129 155 303 189 245 230 229 248 222 208 220 233 238
275 272 269 267 265 263 259 256 249 241 233 233 240 232 214 215 205 193 211 220 229 240 250 246 257 268 267 256 253 266 293 283 278 331 97 115 112 231 248 206 168 220 229 181 192 186 216
279 276 273 270 267 263 257 253 247 240 231 233 232 236 221 228 206 215 217 216 224 225 235 248 239 244 256 266 283 277 288 275 255 263 262 148 146 230 255 160 220 242 238 228 228 210 207
284 283 278 273 269 264 259 256 248 241 232 234 236 231 218 240 222 225 224 225 236 245 243 243 250 261 277 272 284 269 258 240 237 235 243 192 200 214 241 220 281 270 189 157 174 238 210
286 281 280 276 270 266 255 250 248 245 236 236 235 237 238 256 218 221 221 222 228 228 246 245 251 255 255 250 243 239 239 201 184 199 213 191 211 213 139 235 225 255 193 184 147 249 177
288 285 283 278 272 265 257 250 246 243 239 236 237 234 229 243 255 220 220 218 225 229 246 246 230 243 242 233 226 241 253 213 199 188 168 165 172 203 210 233 269 243 218 159 182 241 173
291 292 293 290 281 265 252 247 245 241 238 233 235 234 225 232 250 231 224 221 215 214 222 229 219 238 235 252 210 204 241 226 202 200 175 167 170 180 147 204 246 174 138 188 192 117 152
297 296 295 297 290 263 247 244 242 241 239 234 231 227 229 228 244 251 231 230 222 221 216 223 230 228 219 215 210 212 229 216 192 212 190 202 188 187 191 207 155 148 17 152 150 150 158